AV636 Weather Reports


time (UTC)temp
C
wind
direction
speed
KPH
gust
KPH
rain 1hr
cm
rain 24hr
cm
rain mn
cm
humidity
%
barometer
mb
20260507150137 13 248 22.5 35.4 0.00 0.00 0.00 65 1017.4
20260507145115 13 248 22.5 29.0 0.00 0.00 0.00 66 1017.6
20260507144117 13 248 29.0 35.4 0.00 0.00 0.00 66 1017.8
20260507143117 12 248 17.7 22.5 0.00 0.00 0.00 69 1017.7
20260507142117 12 248 24.1 32.2 0.00 0.00 0.00 69 1017.7
20260507141117 12 248 22.5 29.0 0.00 0.00 0.00 69 1017.6
20260507140117 11 248 19.3 24.1 0.00 0.00 0.00 69 1017.8
20260507135137 11 248 17.7 20.9 0.00 0.00 0.00 71 1018.0
20260507134117 11 248 17.7 22.5 0.00 0.00 0.00 72 1018.0
20260507133117 10 248 24.1 30.6 0.00 0.00 0.00 72 1018.0
20260507132117 10 248 19.3 24.1 0.00 0.00 0.00 73 1018.0
20260507131117 9 248 12.9 19.3 0.00 0.00 0.00 74 1018.0
20260507130117 8 248 12.9 19.3 0.00 0.00 0.00 76 1017.9
20260507125117 8 248 11.3 17.7 0.00 0.00 0.00 78 1017.9
20260507124118 7 248 9.7 12.9 0.00 0.00 0.00 80 1017.7
20260507123116 6 248 4.8 6.4 0.00 0.00 0.00 81 1017.7
20260507122117 6 248 8.0 12.9 0.00 0.00 0.00 81 1017.6
20260507121117 5 248 8.0 11.3 0.00 0.00 0.00 81 1017.5
20260507120117 5 225 3.2 3.2 0.00 0.00 0.00 80 1017.5
20260507115137 5 225 3.2 4.8 0.00 0.00 0.00 80 1017.4
20260507114137 5 248 3.2 4.8 0.00 0.00 0.00 79 1017.6
20260507113116 5 270 3.2 3.2 0.00 0.00 0.00 79 1017.6
20260507112137 5 248 3.2 4.8 0.00 0.00 0.00 79 1017.6
20260507111117 5 248 4.8 4.8 0.00 0.00 0.00 78 1017.5
20260507110116 6 248 4.8 6.4 0.00 0.00 0.00 78 1017.5
20260507105117 6 225 4.8 6.4 0.00 0.00 0.00 78 1017.6
20260507104137 6 248 4.8 4.8 0.00 0.00 0.00 78 1017.6
20260507103116 6 248 4.8 6.4 0.00 0.00 0.00 78 1017.6
20260507102116 6 248 3.2 4.8 0.00 0.00 0.00 78 1017.8
20260507101116 6 248 4.8 6.4 0.00 0.00 0.00 78 1017.7
20260507100116 6 248 6.4 9.7 0.00 0.00 0.00 77 1017.8
20260507095157 6 248 6.4 11.3 0.00 0.00 0.00 77 1017.9
20260507094116 7 270 8.0 11.3 0.00 0.00 0.00 76 1018.1
20260507093116 7 270 4.8 6.4 0.00 0.00 0.00 76 1018.1
20260507092116 7 270 8.0 9.7 0.00 0.00 0.00 76 1018.2
20260507091116 7 270 9.7 11.3 0.00 0.00 0.00 75 1018.4
20260507090116 7 270 9.7 12.9 0.00 0.00 0.00 75 1018.5
20260507085116 8 270 8.0 9.7 0.00 0.00 0.00 74 1018.6
20260507084116 8 293 6.4 9.7 0.00 0.03 0.00 74 1018.6
20260507083116 8 270 4.8 6.4 0.00 0.03 0.00 74 1018.5
20260507082116 8 248 4.8 6.4 0.00 0.05 0.00 73 1018.7
20260507081116 8 248 6.4 8.0 0.00 0.05 0.00 74 1018.7
20260507080116 8 248 4.8 6.4 0.00 0.05 0.00 73 1018.8
20260507075136 8 270 4.8 6.4 0.00 0.05 0.00 73 1018.8
20260507074116 8 270 4.8 6.4 0.00 0.05 0.00 72 1018.7
20260507073116 8 270 4.8 4.8 0.00 0.05 0.00 72 1018.8
20260507072116 8 270 4.8 6.4 0.00 0.05 0.00 71 1019.0
20260507071116 8 270 6.4 9.7 0.00 0.08 0.00 71 1019.0
20260507070136 9 270 6.4 9.7 0.00 0.13 0.00 71 1019.2
20260507065116 9 270 4.8 9.7 0.00 0.15 0.00 72 1019.1
20260507064116 9 270 4.8 6.4 0.00 0.15 0.00 72 1019.3
20260507063116 9 270 4.8 6.4 0.00 0.15 0.00 72 1019.2
20260507062116 9 270 8.0 9.7 0.00 0.15 0.00 72 1019.1
20260507061116 9 270 8.0 9.7 0.00 0.18 0.00 72 1019.2
20260507060136 9 270 4.8 6.4 0.00 0.18 0.00 72 1019.1
20260507055116 8 270 6.4 9.7 0.00 0.18 0.00 72 1019.0
20260507054116 8 270 6.4 9.7 0.00 0.20 0.00 74 1019.1
20260507053116 8 270 4.8 6.4 0.00 0.20 0.00 75 1019.1
20260507051117 8 270 6.4 6.4 0.00 0.20 0.00 77 1019.0
20260507050116 7 270 4.8 6.4 0.00 0.20 0.00 77 1018.9
20260507045156 7 270 4.8 6.4 0.00 0.20 0.20 77 1018.8
20260507044115 7 270 4.8 6.4 0.00 0.20 0.20 77 1018.9
20260507043155 7 0.0 0.0 0.00 0.20 0.20 76 1018.8
20260507042115 7 0.0 0.0 0.00 0.20 0.20 77 1018.6
20260507041135 7 0.0 0.0 0.00 0.20 0.20 76 1018.6
20260507040115 7 0.0 0.0 0.00 0.20 0.20 76 1018.7
20260507035115 7 158 3.2 4.8 0.00 0.20 0.20 75 1018.7
20260507034135 8 158 1.6 3.2 0.00 0.20 0.20 74 1018.9
20260507033115 8 90 3.2 4.8 0.00 0.20 0.20 72 1018.9
20260507032115 9 0.0 0.0 0.00 0.20 0.20 69 1019.0
20260507031115 10 0.0 0.0 0.00 0.20 0.20 69 1018.8
20260507030117 10 0.0 0.0 0.00 0.20 0.20 67 1018.9
20260507025117 11 0.0 0.0 0.00 0.20 0.20 67 1019.0
20260507024117 11 0.0 0.0 0.00 0.20 0.20 63 1018.7
20260507023137 11 0.0 0.0 0.00 0.20 0.20 66 1018.6
20260507022117 11 0.0 0.0 0.00 0.20 0.20 65 1018.4
20260507021117 12 338 1.6 3.2 0.00 0.20 0.20 62 1018.5
20260507020117 12 0 3.2 4.8 0.00 0.20 0.20 60 1018.4
20260507015117 12 0 3.2 4.8 0.00 0.20 0.20 59 1018.0
20260507014117 12 0 6.4 9.7 0.00 0.20 0.20 58 1017.9
20260507013117 12 0 3.2 4.8 0.00 0.20 0.20 56 1017.9
20260507012117 13 0 3.2 4.8 0.00 0.20 0.20 56 1017.9
20260507011117 13 0 3.2 4.8 0.00 0.20 0.20 55 1017.8
20260507010117 13 23 4.8 4.8 0.00 0.20 0.20 54 1017.8
20260507005134 13 23 4.8 6.4 0.00 0.20 0.20 53 1017.8
20260507004516 13 338 4.8 6.4 0.00 0.20 0.20 53 1017.8
20260507003516 14 0 4.8 9.7 0.00 0.20 0.20 52 1017.6
20260507002516 14 0 9.7 16.1 0.00 0.20 0.20 52 1017.7
20260507001516 14 45 6.4 9.7 0.00 0.20 0.20 53 1017.7
20260507000516 15 23 6.4 9.7 0.00 0.20 0.20 52 1017.5
20260506235536 15 45 9.7 16.1 0.00 0.20 0.20 51 1017.5
20260506234516 15 45 4.8 6.4 0.00 0.20 0.20 53 1017.6
20260506233516 14 23 8.0 12.9 0.00 0.20 0.20 53 1017.6
20260506232516 15 338 9.7 12.9 0.00 0.20 0.20 50 1017.5
20260506231516 15 23 14.5 22.5 0.00 0.20 0.20 53 1017.6
20260506230516 15 338 8.0 12.9 0.00 0.20 0.20 51 1017.8
20260506225516 15 23 9.7 14.5 0.00 0.20 0.20 52 1017.8
20260506224515 15 45 8.0 11.3 0.00 0.20 0.20 53 1017.6
20260506223515 15 68 12.9 17.7 0.00 0.20 0.20 52 1017.6
20260506222515 15 23 8.0 16.1 0.00 0.20 0.20 52 1017.4
20260506221516 15 0 14.5 16.1 0.00 0.20 0.20 53 1017.5
20260506220516 15 45 11.3 16.1 0.00 0.20 0.20 53 1017.4
20260506215535 15 23 9.7 16.1 0.00 0.20 0.20 55 1017.7
20260506214535 15 45 9.7 14.5 0.00 0.20 0.20 53 1017.8
20260506213536 15 23 8.0 17.7 0.00 0.20 0.20 52 1017.9
20260506212515 15 338 9.7 14.5 0.00 0.20 0.20 53 1017.7
20260506211516 15 90 6.4 12.9 0.00 0.20 0.20 51 1017.8
20260506210515 15 90 9.7 16.1 0.00 0.20 0.20 51 1017.9
20260506205515 16 45 11.3 17.7 0.00 0.20 0.20 50 1018.2
20260506204515 16 68 8.0 14.5 0.00 0.20 0.20 51 1018.3
20260506203516 15 45 8.0 12.9 0.00 0.20 0.20 53 1018.3
20260506202515 15 45 11.3 17.7 0.00 0.20 0.20 53 1018.4
20260506201515 16 68 12.9 20.9 0.00 0.20 0.20 48 1018.8
20260506200515 16 23 8.0 12.9 0.00 0.20 0.20 51 1018.9
20260506195515 15 90 6.4 12.9 0.00 0.20 0.20 56 1019.0
20260506194515 15 45 3.2 6.4 0.00 0.20 0.20 56 1019.1
20260506193515 15 23 8.0 16.1 0.00 0.20 0.20 55 1019.1
20260506192535 15 45 1.6 14.5 0.00 0.20 0.20 56 1019.0
20260506191515 15 338 11.3 17.7 0.00 0.20 0.20 56 1019.3
20260506190535 14 45 11.3 17.7 0.00 0.20 0.20 58 1018.9
20260506185515 14 68 11.3 22.5 0.00 0.20 0.20 57 1019.1
20260506184515 13 23 6.4 9.7 0.00 0.20 0.20 54 1019.2
20260506183515 13 68 9.7 17.7 0.00 0.20 0.20 54 1019.4
20260506182515 13 45 8.0 12.9 0.00 0.20 0.20 56 1019.4
20260506181515 13 45 17.7 25.7 0.00 0.20 0.20 61 1019.4
20260506180515 13 45 4.8 6.4 0.00 0.20 0.20 60 1019.5
20260506175515 12 23 8.0 14.5 0.00 0.20 0.20 61 1019.6
20260506174515 12 45 11.3 16.1 0.00 0.20 0.20 64 1019.9
20260506173515 12 23 8.0 16.1 0.00 0.20 0.20 63 1020.0
20260506172515 12 23 6.4 16.1 0.00 0.20 0.20 62 1019.9
20260506171535 12 23 11.3 16.1 0.00 0.20 0.20 65 1019.8
20260506170515 12 45 9.7 16.1 0.00 0.20 0.20 66 1019.8
20260506165515 11 23 16.1 20.9 0.00 0.20 0.20 69 1019.8
20260506164517 11 0 12.9 22.5 0.00 0.20 0.20 69 1019.7
20260506163517 11 338 9.7 14.5 0.00 0.20 0.20 69 1019.7
20260506162537 10 0 11.3 14.5 0.00 0.20 0.20 72 1019.8
20260506161517 10 338 14.5 20.9 0.00 0.20 0.20 71 1019.9
20260506160517 10 0 8.0 14.5 0.00 0.20 0.20 72 1019.9
20260506155517 10 0 9.7 12.9 0.00 0.20 0.20 72 1020.0
20260506154537 10 338 8.0 12.9 0.00 0.20 0.20 72 1020.1
20260506153517 10 23 6.4 8.0 0.00 0.20 0.20 73 1019.7
20260506152517 9 23 8.0 9.7 0.00 0.20 0.20 73 1019.6
20260506151517 9 23 11.3 16.1 0.00 0.20 0.20 73 1019.5
20260506150517 9 0 8.0 12.9 0.00 0.28 0.20 72 1019.7